Location: Hookston
(37.9413°N, 122.0527°W)
Time: 05:24:06
(UTC+00:00)

Tiangong - Visible Passes

Search period start: 14 July 2024 00:00
Search period end: 24 July 2024 00:00
Orbit: 373 x 378 km, 41.5° (Epoch: 13 July)

Date Brightness Start Highest point End Pass type
(mag) Time Alt. Az. Time Alt. Az. Time Alt. Az.
14 Jul -2.4 11:02:46 83° S 11:02:49 83° SSE 11:05:55 10° ENE visible
15 Jul 0.9 10:02:59 12° E 10:02:59 12° E 10:03:18 10° E visible
15 Jul -1.4 11:35:01 19° W 11:36:58 49° N 11:40:00 10° ENE visible
16 Jul -1.0 10:35:10 41° NE 10:35:10 41° NE 10:37:23 10° ENE visible
16 Jul -1.0 12:08:12 10° WNW 12:11:09 40° N 12:14:07 10° ENE visible
17 Jul -1.1 11:07:19 30° NW 11:08:21 42° N 11:11:20 10° ENE visible
18 Jul 0.4 10:07:27 19° ENE 10:07:27 19° ENE 10:08:32 10° ENE visible
18 Jul -1.1 11:39:28 10° WNW 11:42:24 43° N 11:45:23 10° E visible
19 Jul -0.9 10:39:38 39° N 10:39:38 39° N 10:42:25 10° ENE visible
19 Jul -1.9 12:13:13 10° WNW 12:16:19 72° NNE 12:19:24 10° ESE visible
20 Jul -1.4 11:11:55 26° NW 11:13:21 50° N 11:16:23 10° E visible
21 Jul 0.6 10:12:23 17° ENE 10:12:23 17° ENE 10:13:15 10° ENE visible
21 Jul -2.3 11:44:25 14° WNW 11:47:02 80° SSW 11:50:08 10° ESE visible
22 Jul -0.7 10:45:12 32° E 10:45:12 32° E 10:47:04 10° E visible
22 Jul -1.2 12:17:45 10° W 12:20:27 27° SSW 12:23:08 10° SSE visible
23 Jul -1.2 11:18:27 34° SSE 11:18:27 34° SSE 11:20:28 10° SE visible
